sat.trackr.live / text

‹ back to catalog

STARLINK-2497

NORAD 48455 · 2021-040AD

PAYLOAD ACTIVE UNKNOWN

§ Identity

Operator
Country
US
Launch date
2021-05-09
Launch site
AFETR
Launch vehicle
Mass (kg)
RCS (m²)

Purposes: comms

External: N2YO · Heavens-Above · Gunter

§ Orbital elements

Epoch: 2026-09-19T23:35:48.620832Z

Period
94.01 min
Inclination
53.1608°
Eccentricity
0.0001388
Mean motion
15.31679318 rev/d
Perigee alt
469.9 km
Apogee alt
471.8 km
Semi-major
6,848.9 km
B*
9.2233e-5
RAAN
354.1735°
Arg perigee
92.3525°
Mean anomaly
267.7635°
Rev number
29,644

§ Raw data

STARLINK-24971 48455U 21040AD  26262.98320163  .00002496  00000+0  92233-4 0  99962 48455  53.1608 354.1735 0001388  92.3525 267.7635 15.31679318296440

JSON: /api/v1/satellites/48455 · /tle

For live sub-satellite position, see the globe view (requires WebGL).

§ Visibility from observer

Set your observer location to see the next 7 days of passes ≥ 10°. The values pass through the URL so the page stays shareable.

No JS? Fill the form by hand. The geolocation button needs JavaScript.